TimeAKDT,TemperatureF,Dew PointF,Humidity,Sea Level PressureIn,VisibilityMPH,Wind Direction,Wind SpeedMPH,Gust SpeedMPH,PrecipitationIn,Events,Conditions,WindDirDegrees,DateUTC
12:53 AM,34.0,28.9,82,29.81,10.0,Calm,Calm,-,N/A,,Mostly Cloudy,0,2012-09-14 08:53:00
1:53 AM,35.1,28.9,78,29.81,10.0,Calm,Calm,-,N/A,,Mostly Cloudy,0,2012-09-14 09:53:00
2:53 AM,35.1,28.9,78,29.81,10.0,NNE,4.6,-,N/A,,Overcast,30,2012-09-14 10:53:00
3:53 AM,35.1,28.9,78,29.81,10.0,East,3.5,-,N/A,,Overcast,80,2012-09-14 11:53:00
4:53 AM,34.0,30.0,85,29.80,10.0,Calm,Calm,-,N/A,,Overcast,0,2012-09-14 12:53:00
5:53 AM,34.0,28.9,82,29.80,10.0,NE,3.5,-,N/A,,Overcast,50,2012-09-14 13:53:00
6:53 AM,35.1,28.9,78,29.81,10.0,NNE,3.5,-,N/A,,Overcast,30,2012-09-14 14:53:00
7:53 AM,36.0,28.0,73,29.80,10.0,ENE,3.5,-,N/A,,Overcast,60,2012-09-14 15:53:00
8:53 AM,36.0,30.0,79,29.81,10.0,Calm,Calm,-,N/A,,Mostly Cloudy,0,2012-09-14 16:53:00
9:53 AM,37.0,28.9,73,29.81,10.0,Calm,Calm,-,N/A,,Mostly Cloudy,0,2012-09-14 17:53:00
10:53 AM,41.0,28.9,62,29.81,10.0,Calm,Calm,-,N/A,,Mostly Cloudy,0,2012-09-14 18:53:00
11:53 AM,45.0,28.9,53,29.81,10.0,East,4.6,-,N/A,,Mostly Cloudy,100,2012-09-14 19:53:00
12:53 PM,45.0,28.9,53,29.80,10.0,East,3.5,-,N/A,,Mostly Cloudy,80,2012-09-14 20:53:00
1:53 PM,48.9,30.0,48,29.78,10.0,NE,3.5,-,N/A,,Mostly Cloudy,50,2012-09-14 21:53:00
2:53 PM,51.1,30.9,46,29.78,10.0,East,5.8,-,N/A,,Mostly Cloudy,100,2012-09-14 22:53:00
3:53 PM,51.1,30.9,46,29.77,10.0,ESE,4.6,-,N/A,,Overcast,110,2012-09-14 23:53:00
4:53 PM,52.0,33.1,49,29.77,10.0,East,4.6,-,N/A,,Overcast,90,2012-09-15 00:53:00
5:53 PM,52.0,34.0,50,29.77,10.0,East,4.6,-,N/A,,Overcast,90,2012-09-15 01:53:00
6:53 PM,51.1,34.0,52,29.76,10.0,East,4.6,-,N/A,,Mostly Cloudy,100,2012-09-15 02:53:00
7:53 PM,48.0,35.1,61,29.76,10.0,Calm,Calm,-,N/A,,Mostly Cloudy,0,2012-09-15 03:53:00
8:53 PM,43.0,37.0,80,29.76,10.0,Calm,Calm,-,N/A,,Mostly Cloudy,0,2012-09-15 04:53:00
9:53 PM,42.1,36.0,79,29.77,10.0,NNE,3.5,-,N/A,,Mostly Cloudy,20,2012-09-15 05:53:00
10:53 PM,42.1,37.0,82,29.77,10.0,NNE,3.5,-,N/A,,Mostly Cloudy,30,2012-09-15 06:53:00
11:53 PM,43.0,36.0,76,29.78,10.0,Calm,Calm,-,N/A,,Mostly Cloudy,0,2012-09-15 07:53:00